Wind_Speed
12 12 13 13 13 13 14 14 15 15 16 17 18 19 20 21 22 23 25 25 26 26 23 17 15 12 7 7 8 9 10 9 7 7 10 13 13 13 14 13 13 13 12 11 9 6 3 3 4 5 7 7 5 5 5 6 7 3 2 4 1 0 1 2 5 5 4 3 1 3 7 12 8 10 17 13 15 21 20 19 19 17 17 17 16 13 10 8
11 12 13 13 13 13 13 13 14 14 15 15 16 17 18 20 21 22 24 25 25 25 23 17 13 11 7 5 7 7 8 9 8 9 11 12 12 13 14 14 14 15 14 12 10 8 5 5 5 6 8 7 4 4 4 4 6 4 3 4 1 3 1 2 6 6 4 5 4 4 6 9 11 14 14 7 9 17 18 15 17 19 18 16 14 11 8 7
11 12 12 13 13 13 13 13 13 13 14 14 15 16 17 18 20 21 22 24 24 24 23 18 12 11 7 3 4 5 6 7 7 9 10 10 11 13 13 14 14 14 15 14 13 11 8 7 7 7 7 7 4 2 3 3 3 2 3 3 4 5 2 1 6 7 6 9 6 5 6 3 8 14 12 11 10 7 10 13 13 17 19 16 14 11 9 8
12 12 12 13 13 14 14 13 13 13 13 13 13 14 15 16 18 20 21 22 23 23 23 19 11 9 8 3 2 2 2 3 4 6 7 7 9 10 11 12 12 12 13 14 13 12 10 10 8 6 5 5 4 1 1 2 2 1 2 2 5 5 3 3 7 8 7 8 7 8 6 3 6 11 17 21 11 1 11 18 13 18 23 19 16 13 11 9
12 12 12 13 13 14 14 14 13 13 13 13 13 13 14 15 17 18 20 21 22 22 21 19 12 7 7 4 2 0 2 2 1 3 4 5 6 8 10 10 10 10 11 12 12 11 10 10 8 6 4 3 4 2 0 2 2 1 2 4 4 4 3 5 7 7 6 8 8 8 6 5 6 8 19 22 8 6 16 17 14 19 22 19 18 15 12 11
12 12 12 13 13 13 13 14 14 13 13 13 13 13 13 14 16 17 18 19 20 20 20 19 13 6 5 4 3 2 3 1 2 2 3 3 5 6 8 8 8 8 8 10 10 10 10 11 10 7 4 3 3 1 0 3 2 1 3 3 3 3 3 6 6 5 7 8 7 6 4 6 7 7 12 13 5 12 19 17 17 19 19 19 18 15 12 11
12 12 12 13 13 13 13 13 13 13 13 13 13 14 14 14 15 16 18 19 19 19 18 18 13 5 2 2 2 2 3 3 2 2 2 2 4 5 6 6 7 7 7 9 10 11 12 13 13 9 4 3 3 1 1 4 2 2 3 3 1 1 3 5 6 6 7 6 3 4 5 7 9 6 6 8 9 17 20 18 20 20 19 18 16 14 12 11
12 12 13 13 13 13 13 13 13 13 13 14 14 14 14 14 15 16 17 18 18 17 16 16 13 6 2 1 1 1 1 2 2 2 2 2 3 4 5 5 6 6 8 11 10 11 12 13 12 9 3 1 2 3 3 5 3 3 3 4 1 2 1 3 5 6 6 5 3 3 6 9 12 9 7 12 17 20 21 21 21 21 20 18 16 15 12 11
12 13 13 13 13 13 14 14 14 14 14 14 14 14 14 14 14 15 17 18 18 17 15 14 13 7 3 4 4 3 3 3 3 3 3 2 2 3 4 4 4 6 9 10 9 9 11 12 10 7 3 0 3 4 3 3 2 2 3 3 3 5 5 2 3 5 6 5 4 2 2 7 13 9 6 14 21 22 23 22 21 21 20 17 15 14 11 10
13 13 13 14 14 14 15 14 14 15 14 14 14 14 15 15 15 15 17 18 18 17 14 14 12 7 4 4 5 2 3 4 4 4 4 2 2 2 3 4 4 5 8 8 7 6 9 11 9 7 3 1 3 4 2 1 2 3 3 5 6 8 9 7 5 5 8 6 3 3 2 8 15 7 2 16 24 24 25 23 22 21 19 17 14 12 10 9
13 13 14 14 14 15 15 15 16 16 15 16 15 15 15 16 15 15 17 18 18 17 14 13 12 7 4 4 5 3 3 4 5 5 5 3 1 2 3 4 3 4 7 8 6 4 7 10 10 7 2 1 4 5 1 0 3 6 6 8 9 10 11 8 7 8 9 5 4 6 3 6 11 4 8 23 28 26 27 25 23 21 18 16 14 12 10 8
13 14 14 14 15 16 16 17 17 16 17 17 16 16 16 16 16 16 17 17 18 17 14 12 11 6 5 4 5 4 3 4 5 6 6 4 0 2 3 4 4 5 7 7 5 4 4 8 10 6 2 3 4 3 1 3 6 6 4 5 8 9 8 7 6 9 10 6 6 8 3 2 8 7 10 27 32 28 27 25 23 21 18 17 15 13 10 9
14 14 14 15 15 16 17 17 17 18 18 18 18 17 16 17 16 16 16 16 18 16 13 13 10 6 6 5 5 5 4 4 6 7 6 4 2 1 3 4 4 5 6 7 4 3 4 7 9 7 5 4 2 1 4 6 5 4 2 1 3 8 6 4 2 8 8 6 8 7 1 5 10 11 12 27 34 30 27 26 25 22 20 18 16 14 12 10
15 15 15 15 16 16 17 17 18 19 18 19 19 18 18 18 16 16 15 15 16 14 12 13 8 5 6 5 5 6 6 6 7 7 6 5 3 2 3 4 4 5 6 6 3 3 6 8 8 7 5 3 3 4 5 4 1 1 1 2 2 3 5 6 2 8 6 4 10 7 4 7 8 11 17 30 35 33 30 28 27 25 22 20 18 15 12 12
15 15 16 15 16 17 17 18 18 19 19 20 19 20 19 18 17 16 13 14 14 10 12 13 7 6 5 5 6 7 8 8 9 8 7 5 4 4 4 4 4 5 6 6 2 4 9 8 6 5 4 4 4 3 4 4 3 2 2 3 3 1 5 9 1 9 6 4 9 7 4 7 7 10 23 33 34 33 29 28 28 27 24 22 20 16 13 13
16 16 16 16 16 16 17 18 18 19 20 20 21 21 19 19 18 13 11 13 11 9 13 10 6 6 4 4 6 8 9 10 9 8 8 7 6 5 4 4 4 4 5 5 2 4 10 6 4 4 3 3 2 3 4 4 4 3 2 3 4 2 3 6 3 6 7 3 5 6 5 7 6 9 24 31 32 31 27 27 29 28 26 24 21 18 14 13
17 17 17 16 16 17 17 18 18 20 20 20 22 20 20 19 15 11 12 10 9 11 12 7 6 7 7 7 7 9 10 10 9 8 8 7 6 4 3 3 3 2 3 4 2 5 8 3 2 2 3 4 3 4 4 4 4 4 3 2 4 4 3 4 5 5 4 4 5 6 6 10 5 9 24 29 30 29 26 27 29 29 27 25 22 19 16 14
19 19 18 17 17 17 17 17 18 20 20 21 21 22 21 15 12 13 10 5 7 11 9 6 4 3 6 7 7 7 8 9 9 8 8 7 6 4 3 2 2 1 3 3 2 4 5 1 2 2 3 5 3 5 2 3 3 4 4 3 4 4 4 5 5 4 3 3 7 4 7 13 6 8 21 28 29 28 27 27 29 29 28 26 23 21 17 15
20 20 19 18 17 17 17 17 18 19 21 21 20 22 18 12 13 7 2 3 9 7 3 6 6 4 7 8 8 8 8 8 8 8 8 7 5 4 3 2 1 1 2 2 2 4 3 2 3 3 3 2 1 5 5 7 6 6 5 4 5 5 7 7 6 6 4 4 9 9 10 13 7 8 16 24 27 27 24 24 26 27 28 27 25 22 19 15
20 20 19 19 18 17 17 17 17 18 20 20 21 19 12 11 10 0 3 11 9 6 8 10 13 14 14 14 12 11 10 10 9 8 7 7 5 4 3 2 2 2 3 1 3 4 3 3 2 3 5 6 6 6 6 5 6 4 3 4 6 5 8 8 6 6 2 3 9 10 10 12 10 8 14 22 24 21 20 21 24 27 29 30 27 23 20 16
20 20 19 19 18 17 17 16 16 16 18 18 19 15 9 9 6 3 11 11 6 10 16 18 18 18 16 15 12 9 8 8 10 10 8 7 5 5 4 1 3 2 3 1 2 1 4 3 4 7 8 7 6 5 4 2 4 3 3 4 6 5 8 10 6 5 1 3 7 6 6 10 11 9 12 18 17 18 25 25 26 30 30 31 29 25 21 17
21 20 19 19 18 17 16 16 15 14 15 15 14 11 8 9 6 7 10 8 11 15 16 16 16 17 15 13 12 10 8 6 8 11 9 6 5 4 4 3 4 1 3 3 2 4 4 3 8 8 6 5 0 1 2 2 3 2 2 1 5 4 5 8 6 4 1 2 6 7 7 8 9 9 10 15 18 23 33 34 33 36 34 33 32 27 24 21
22 21 20 19 18 17 15 15 14 12 12 12 10 8 8 8 8 10 9 8 12 13 12 11 10 12 11 8 7 8 9 7 7 10 9 6 5 4 5 5 3 1 2 3 3 2 3 5 7 4 6 4 2 2 2 1 1 3 3 1 5 4 2 5 5 4 3 3 5 9 10 7 7 10 11 17 26 27 31 32 31 34 35 35 33 28 26 25
23 22 21 20 18 16 15 14 13 11 11 9 8 7 7 7 8 11 10 5 7 8 8 7 7 8 7 5 4 6 7 7 6 9 9 6 5 5 5 4 4 2 2 3 6 3 6 7 3 5 5 4 2 1 2 2 3 4 5 5 7 7 6 7 4 5 5 4 4 8 10 6 7 13 12 9 17 20 21 24 24 29 33 32 30 27 25 24
24 23 21 20 18 16 14 14 12 10 9 8 7 6 6 7 7 10 8 3 4 5 3 5 6 6 7 5 5 6 4 6 8 8 8 7 6 5 3 3 3 2 5 4 5 3 7 5 3 5 2 3 4 2 4 6 2 5 5 9 10 9 8 7 6 6 4 4 4 4 5 6 3 9 11 2 5 12 13 16 21 27 30 30 29 27 24 21
25 23 22 20 18 16 13 12 10 9 8 7 7 6 6 6 6 8 5 3 3 4 3 4 4 4 7 7 6 5 1 4 8 10 8 6 7 6 2 2 2 1 5 4 1 2 3 1 3 4 4 4 3 4 5 6 4 3 5 6 6 6 5 6 5 4 1 3 4 3 1 8 2 4 10 5 6 10 9 10 18 25 29 31 31 28 25 21
25 23 21 20 18 15 13 11 10 9 8 7 6 5 6 5 4 6 4 4 3 4 4 4 5 5 7 7 8 7 1 3 6 8 10 8 6 5 3 3 1 1 4 3 2 3 3 1 3 4 4 3 2 5 5 7 6 3 4 4 3 2 4 4 2 2 3 2 6 2 4 7 7 6 8 7 9 11 9 10 13 21 28 31 30 28 26 22
25 23 21 20 18 16 14 12 11 10 9 8 7 6 5 4 4 3 3 2 3 3 4 4 5 6 7 7 10 8 2 3 4 5 11 10 5 4 3 5 6 5 4 5 3 5 3 4 4 4 3 3 5 5 7 9 4 5 5 4 1 2 4 3 1 5 2 3 8 6 6 4 9 5 3 2 8 11 12 14 13 19 28 30 30 29 26 23
25 23 21 20 18 17 15 13 12 10 10 8 6 6 4 3 2 3 3 1 2 3 3 4 5 6 6 6 8 9 4 3 2 6 11 8 5 3 2 5 6 4 3 4 5 6 2 3 6 7 4 5 6 5 7 9 4 3 3 2 2 1 1 1 1 3 2 2 10 8 7 4 8 3 1 1 5 11 12 13 12 19 27 27 29 30 26 24
25 23 21 20 19 17 15 14 13 11 10 8 7 6 4 1 2 4 1 3 2 1 3 4 4 5 7 5 3 5 5 4 3 8 8 4 4 3 2 3 3 4 1 3 2 5 2 0 2 4 5 5 4 2 2 4 3 3 4 3 4 4 3 2 1 2 3 3 10 8 11 8 6 3 5 4 6 9 10 9 9 17 24 26 30 32 29 25
25 23 21 20 19 18 16 15 14 12 11 9 8 7 4 1 4 3 5 3 1 1 2 2 2 4 7 4 2 3 2 3 5 8 5 2 2 1 2 2 1 3 3 5 3 5 5 0 2 3 4 4 6 4 2 3 3 4 4 4 4 5 3 4 4 3 2 6 7 5 9 9 8 6 5 8 8 7 8 9 12 18 23 28 33 34 30 26
24 23 22 21 21 19 17 15 14 13 12 10 10 8 4 1 0 4 4 2 2 3 3 2 2 3 5 2 1 3 2 1 4 5 4 3 2 3 3 4 2 2 5 2 2 5 3 4 3 1 2 5 6 3 2 5 5 5 3 4 3 4 4 3 3 0 3 7 4 2 3 5 10 10 8 13 13 8 8 11 17 20 24 30 36 35 31 25
22 23 22 21 21 20 18 16 14 15 13 12 11 7 5 2 5 6 4 2 2 3 2 2 2 3 5 3 2 3 2 3 4 3 2 2 0 3 4 4 6 3 4 3 1 3 3 5 2 1 2 7 9 5 2 2 1 4 3 3 2 0 3 4 4 3 5 7 2 3 2 4 9 9 10 14 12 9 12 17 21 25 30 36 39 36 30 24
20 23 23 22 22 21 20 18 17 16 14 14 11 5 4 5 6 4 6 6 3 1 1 2 3 3 4 3 4 4 3 3 3 3 1 1 0 3 4 4 5 5 2 2 0 3 2 5 3 5 2 8 9 5 6 5 4 4 4 4 4 3 2 4 4 5 7 7 4 2 1 5 5 3 6 9 8 7 13 18 18 23 33 37 36 33 28 23
21 24 23 22 23 22 20 19 20 17 16 16 9 4 6 7 4 3 5 5 2 0 1 2 5 4 2 3 3 3 4 4 2 3 1 3 4 4 4 5 6 5 5 3 2 3 4 6 6 2 1 8 7 4 6 6 2 2 3 4 2 4 5 3 3 4 4 7 6 3 3 6 4 2 2 1 4 2 4 10 15 21 30 32 32 31 27 23
21 22 22 24 25 23 20 21 20 19 19 15 7 6 9 6 4 5 4 4 5 5 4 2 3 4 4 3 3 3 3 2 1 2 2 3 3 5 4 5 7 8 7 5 3 2 2 6 4 2 0 4 4 4 4 3 2 2 2 3 4 4 5 2 4 1 1 4 6 3 6 7 2 4 2 4 3 2 2 7 15 22 29 30 30 30 27 23
18 20 22 26 25 22 22 22 19 21 20 13 7 8 7 5 7 6 4 4 4 5 7 2 2 5 5 3 4 5 2 1 1 2 2 3 3 6 5 5 7 12 12 6 2 3 2 5 4 3 2 3 2 2 2 1 4 5 3 5 3 2 3 2 1 3 1 5 6 2 9 11 4 4 2 4 2 3 3 5 10 17 23 25 26 28 26 22
17 19 23 28 25 23 23 21 20 22 17 9 8 8 4 6 9 8 6 5 4 4 6 5 5 5 6 4 4 4 3 3 3 3 3 3 4 5 6 4 7 10 12 8 2 2 2 3 5 1 1 1 1 2 1 2 2 5 3 3 2 2 2 2 2 2 2 5 7 5 10 13 8 5 2 4 8 9 7 7 8 13 18 21 25 28 25 20
19 15 19 26 26 25 23 20 21 20 13 7 9 8 4 5 10 14 13 7 3 4 4 6 6 3 5 6 4 3 5 5 5 3 3 3 4 6 7 5 5 5 7 9 5 2 3 1 4 1 1 1 2 1 3 2 1 2 1 3 0 3 4 3 2 2 3 5 8 7 9 10 6 5 7 10 13 12 10 10 11 14 19 24 27 28 25 21
20 12 12 18 21 25 24 20 20 16 9 8 9 6 3 4 10 20 21 12 5 5 5 4 5 5 4 5 4 3 5 5 6 5 4 4 4 5 7 6 4 3 2 5 3 1 3 2 3 2 3 1 2 4 7 8 5 3 2 3 3 2 1 1 1 2 3 6 7 5 10 11 3 4 7 11 13 13 14 14 13 16 21 26 29 29 25 22
20 11 10 12 15 24 27 19 14 11 6 7 7 5 5 5 7 13 23 23 14 8 7 5 6 7 5 5 4 4 5 4 6 6 4 5 6 5 9 12 10 8 4 4 1 3 3 3 4 1 1 4 6 5 6 9 8 6 6 6 7 6 2 2 5 3 3 6 6 3 12 14 3 3 6 8 9 11 14 16 13 16 24 27 29 29 25 22
21 10 8 12 16 25 28 14 7 7 6 8 8 7 8 8 6 8 17 22 16 10 7 5 5 7 6 6 6 6 5 4 6 7 5 8 10 6 10 18 19 17 10 3 2 4 3 2 3 5 5 5 5 4 1 3 4 3 5 6 6 6 6 6 8 3 2 6 4 1 11 13 2 4 5 6 8 11 19 21 15 17 26 29 29 28 24 21
25 15 8 13 20 27 24 9 6 6 5 9 11 11 12 8 5 7 11 14 11 7 7 6 5 8 7 6 7 6 6 5 7 8 6 7 9 9 12 21 22 15 8 2 1 3 3 2 3 5 5 1 2 4 4 3 2 2 5 5 7 8 9 8 6 1 2 6 3 1 13 13 1 1 2 3 6 11 20 24 19 19 25 29 29 27 24 20
25 19 14 13 20 28 21 7 7 9 7 7 9 13 15 11 9 10 9 11 11 6 6 7 6 10 9 5 7 7 6 7 7 9 9 5 5 10 15 23 23 13 7 6 7 8 5 2 3 2 6 5 3 3 4 4 1 4 5 6 9 12 8 2 1 1 5 8 6 5 15 12 1 2 2 2 5 7 12 20 22 22 25 28 29 27 24 20
16 14 17 19 25 30 21 9 5 7 9 10 9 11 13 12 16 21 16 13 14 8 5 7 8 10 8 4 6 8 8 10 8 5 7 5 3 5 9 19 23 14 8 9 12 15 8 3 5 5 5 7 8 5 3 3 3 3 4 7 10 13 11 5 2 5 10 8 7 10 17 14 5 1 2 2 6 7 8 14 19 22 26 29 29 28 25 20
14 8 10 16 28 33 29 21 10 4 7 10 7 9 15 14 13 19 20 15 16 13 8 7 7 8 6 6 8 9 10 12 10 5 4 4 4 2 3 12 16 12 7 8 15 14 4 1 7 9 10 12 14 12 3 5 3 5 7 10 11 11 13 10 5 10 10 4 9 19 18 18 18 9 5 6 6 8 9 10 14 20 25 29 31 29 25 20
15 9 10 11 16 24 26 24 16 6 6 11 8 7 16 18 10 10 16 16 16 17 11 7 7 8 8 10 9 9 12 13 11 9 6 4 4 2 1 5 9 10 7 7 13 10 3 4 11 12 15 18 19 17 5 3 8 13 14 12 11 11 13 13 14 17 8 2 14 25 17 18 26 17 8 10 10 9 8 10 16 23 27 30 31 28 24 18
17 12 22 23 11 8 15 21 20 13 11 13 10 6 10 16 13 11 13 12 14 18 13 7 13 16 13 13 10 10 14 12 10 11 9 6 5 2 1 1 4 9 6 5 8 6 3 8 12 10 15 20 21 17 7 6 10 14 20 18 10 12 16 19 22 22 14 10 20 27 20 20 25 17 9 11 11 11 13 18 24 26 28 30 30 27 23 19
22 11 20 29 17 8 16 25 23 18 18 14 9 10 15 17 17 14 10 7 8 17 18 12 17 20 16 15 12 11 15 13 11 12 11 12 12 6 2 2 4 7 6 4 4 3 4 8 9 8 12 17 18 14 8 11 13 16 26 24 13 14 19 20 22 24 21 20 25 27 27 28 26 18 12 11 13 17 20 22 24 25 28 30 30 28 24 20
32 19 18 23 18 14 16 20 17 13 16 15 12 17 18 17 17 13 10 12 11 12 17 21 22 18 17 18 17 20 23 18 14 15 13 12 11 6 5 5 4 4 5 4 2 3 5 5 3 4 7 15 16 11 8 12 13 18 29 26 14 15 18 18 22 23 19 21 27 27 24 25 25 18 13 13 14 15 14 17 21 26 30 32 30 28 25 21
45 33 26 19 11 13 13 12 12 11 11 13 15 19 16 16 21 14 9 19 23 14 16 25 26 16 15 21 24 27 29 21 18 22 20 16 14 11 9 8 9 7 5 6 4 4 6 3 1 4 6 13 9 3 4 5 6 17 30 27 17 16 19 19 20 20 19 21 24 20 16 20 21 11 6 9 12 12 10 14 20 25 31 33 31 30 26 21
46 33 33 25 12 13 14 9 10 12 12 15 18 19 16 17 20 14 9 19 28 26 22 25 23 14 12 21 30 37 38 32 28 28 22 18 17 14 11 13 16 14 8 7 5 4 6 5 2 4 7 10 2 4 3 2 4 15 20 16 17 20 22 20 18 21 22 18 15 14 16 19 15 6 4 7 9 10 11 17 22 24 30 33 32 30 25 19
Wind_Direction
6 8 10 13 15 15 16 17 19 21 23 23 22 22 19 18 20 20 22 25 27 28 29 28 35 45 64 82 77 71 66 65 72 77 68 58 52 45 42 39 34 32 25 16 5 359 360 11 8 8 5 7 8 347 359 15 17 36 102 71 42 225 112 186 178 177 153 160 218 214 151 126 127 120 116 108 101 102 96 97 106 112 116 120 130 141 146 149
1 3 4 8 11 12 12 13 15 15 18 20 19 19 17 15 16 16 18 21 23 25 26 27 34 42 59 95 92 84 77 74 77 71 64 58 52 46 42 39 33 29 23 18 15 15 25 30 22 15 16 24 14 343 356 9 31 61 109 69 242 206 199 214 165 163 142 154 179 197 172 140 147 149 140 127 107 108 99 97 112 118 122 133 143 150 159 169
355 357 359 2 5 8 9 8 10 10 10 13 15 15 13 12 11 11 12 15 17 20 23 25 31 39 48 94 115 99 85 74 67 60 59 57 52 46 41 35 31 28 22 17 18 18 15 10 4 8 21 32 18 331 356 4 29 71 91 64 241 208 165 195 145 137 148 163 156 163 189 137 141 160 154 144 143 126 126 139 135 134 142 147 153 161 164 161
349 352 353 356 358 2 4 5 5 5 4 4 7 9 8 7 6 5 6 8 11 13 17 21 27 39 42 63 134 120 59 51 48 52 57 55 52 46 40 31 26 28 23 16 17 17 10 4 0 12 34 33 17 340 346 13 5 6 124 158 223 193 147 167 139 130 146 158 151 156 167 103 124 166 161 143 130 246 177 168 168 161 158 155 156 158 154 146
345 347 349 351 353 355 359 1 1 360 359 357 357 0 2 0 360 359 359 1 4 6 10 15 20 37 43 56 108 359 360 11 360 61 68 56 50 45 36 24 21 27 23 17 16 18 11 6 6 19 40 33 21 23 351 26 30 346 225 207 197 162 148 165 142 131 147 144 140 147 148 150 136 138 157 153 141 207 186 177 177 168 161 159 156 151 147 141
338 342 346 347 348 349 352 356 358 356 354 353 351 351 354 354 352 352 352 352 356 359 3 8 13 30 46 59 83 46 37 96 190 101 83 58 46 39 27 14 18 23 17 16 19 27 24 15 12 14 33 43 24 30 53 4 358 296 277 251 181 142 133 165 151 134 157 147 135 145 155 171 141 109 158 173 190 181 174 168 163 158 156 156 153 151 147 138
332 337 340 343 345 345 347 349 352 353 351 351 349 348 349 349 347 346 345 345 348 352 355 1 3 7 31 64 89 55 60 103 152 116 95 69 49 35 22 7 11 12 9 18 26 33 28 18 17 17 30 54 24 360 343 325 303 167 259 280 209 147 123 160 153 136 151 130 106 154 168 185 164 137 160 167 161 161 160 159 157 154 153 155 151 147 142 132
328 331 334 338 341 341 342 343 344 346 347 348 348 347 347 348 346 344 343 341 342 345 348 354 354 341 300 231 201 293 103 127 145 139 124 83 55 35 22 6 2 6 9 14 22 29 26 21 16 13 24 81 7 343 350 327 304 152 227 282 301 302 70 148 149 145 142 102 85 167 175 199 188 164 141 143 149 153 155 157 158 156 155 156 152 143 136 128
324 327 330 333 335 338 338 339 339 339 340 341 343 343 344 346 346 344 343 340 339 340 341 348 347 328 284 240 233 262 232 198 187 179 163 105 62 35 24 8 355 7 10 7 13 21 25 24 14 2 351 288 341 332 8 6 304 199 223 302 322 302 311 268 197 170 168 142 116 134 173 196 180 156 129 152 157 157 159 161 161 161 160 158 153 144 137 129
318 322 326 329 332 334 334 335 335 335 335 335 337 337 336 338 340 341 341 338 337 335 334 342 342 322 285 243 221 227 227 209 196 191 176 136 72 42 30 8 351 4 4 0 7 16 23 23 11 355 336 295 335 317 323 5 282 290 295 310 299 290 298 274 233 187 173 179 153 132 192 186 172 165 188 171 166 166 165 163 166 167 166 162 157 154 148 135
312 318 322 325 328 330 331 332 331 331 332 331 333 332 330 330 332 334 335 335 333 331 329 336 338 312 271 239 215 210 216 204 194 193 185 166 78 40 29 5 355 359 355 356 358 1 19 15 3 355 344 308 321 312 299 217 298 308 319 314 301 307 301 260 218 192 172 186 181 135 138 181 175 211 219 182 172 174 172 166 171 175 172 168 167 166 159 146
306 312 317 321 324 326 328 328 328 329 329 329 331 330 328 325 326 327 328 329 328 326 324 332 335 301 263 249 237 233 219 199 192 195 194 187 94 18 23 10 1 358 349 348 349 349 7 360 355 352 316 288 309 340 357 323 314 298 327 315 303 341 319 252 205 189 177 187 177 128 79 224 206 239 212 182 175 176 177 171 174 178 176 174 173 172 166 158
302 308 312 317 320 322 324 325 325 326 327 328 329 329 328 325 324 323 322 323 321 319 321 328 327 286 266 261 249 240 223 208 198 201 203 207 246 323 7 4 355 356 345 339 343 351 354 345 343 339 320 300 289 341 311 311 312 283 333 4 308 357 325 268 154 174 176 189 180 150 281 251 224 232 197 179 177 177 178 177 178 179 177 176 176 176 171 161
299 303 309 312 316 317 319 322 322 324 325 326 327 329 329 327 325 322 319 316 313 312 318 323 314 269 262 258 257 243 225 217 207 210 212 221 249 270 318 345 349 349 341 338 350 358 350 345 342 344 343 322 289 301 317 333 17 251 352 36 7 4 285 301 64 155 167 201 175 154 259 254 244 233 192 182 184 181 179 180 181 181 179 179 178 178 172 160
295 299 305 308 311 313 315 318 319 322 324 325 326 328 330 329 327 322 315 310 303 305 319 315 288 258 259 249 256 242 226 221 215 218 219 235 255 254 293 327 341 343 342 336 332 3 353 347 349 360 349 329 328 335 342 352 9 27 16 324 333 152 268 308 315 168 183 210 169 154 255 260 262 225 191 185 187 184 183 183 184 184 182 182 181 179 175 165
292 296 299 302 307 308 311 315 317 320 322 325 326 328 333 330 327 323 312 303 288 299 320 307 260 250 255 253 254 238 228 222 219 227 232 247 248 246 289 313 328 334 347 344 308 345 351 354 18 22 10 354 40 67 32 6 346 2 47 280 273 216 277 316 318 206 206 201 188 192 237 268 275 206 187 186 187 186 185 185 185 186 185 183 183 183 180 172
290 293 296 299 303 305 309 312 316 318 321 325 326 330 334 331 329 323 309 290 273 304 315 282 252 265 261 256 248 238 232 224 223 230 239 248 234 243 284 283 314 320 1 359 310 331 345 6 45 20 33 34 72 79 33 356 325 329 7 319 257 233 253 286 310 290 199 192 234 214 226 256 260 178 186 190 190 189 189 190 188 187 187 185 185 187 185 177
288 291 293 297 300 303 307 310 315 317 321 326 328 332 334 332 332 321 302 269 281 309 303 241 234 294 264 236 220 228 229 222 229 233 239 238 219 233 254 252 313 360 19 360 296 335 342 10 74 51 22 12 35 77 74 256 250 276 293 304 289 272 254 245 276 291 169 212 248 227 244 255 252 181 196 197 194 195 197 194 190 188 187 185 188 190 188 181
283 287 290 294 297 300 303 308 313 316 320 325 329 334 334 334 337 325 210 299 304 296 261 218 217 250 265 251 239 242 238 229 236 239 232 221 210 220 222 220 135 126 18 360 317 346 1 26 47 25 344 308 185 122 169 207 201 233 254 249 264 275 272 255 250 254 205 231 255 238 246 256 245 204 205 203 199 202 204 197 192 191 189 189 192 193 189 181
277 282 286 290 293 296 300 305 310 315 320 325 333 341 345 344 350 325 266 320 304 257 263 261 254 257 264 269 265 255 252 245 239 233 217 207 208 203 193 185 132 85 27 6 294 335 51 37 347 265 255 221 206 186 189 197 187 219 250 245 248 242 271 273 260 272 210 202 259 243 242 258 249 223 212 205 201 204 206 200 197 195 192 193 194 194 189 181
270 274 279 285 288 292 295 299 307 314 318 326 337 348 359 359 3 304 314 321 297 281 281 273 268 265 264 267 263 251 249 242 227 218 206 200 197 191 192 147 79 28 346 345 261 337 60 22 268 239 223 198 203 205 204 209 188 218 230 262 278 232 256 274 271 290 200 178 267 269 255 260 253 246 221 201 196 207 206 201 200 198 196 197 197 195 189 180
264 267 272 277 280 285 288 294 302 308 316 323 333 344 352 354 348 326 325 305 294 297 283 271 266 264 264 264 259 243 234 230 217 207 196 191 192 201 196 130 83 345 330 27 32 355 9 285 257 244 199 163 181 213 193 223 194 203 190 267 290 253 268 291 299 323 35 183 274 288 274 259 256 258 232 202 201 213 211 207 205 200 196 197 197 195 188 181
261 264 267 270 274 279 282 289 294 301 310 313 322 333 341 342 337 336 333 296 293 297 281 272 260 256 257 257 252 226 213 215 210 198 189 192 200 194 167 132 103 124 12 53 117 7 328 252 244 210 152 151 327 346 142 259 264 208 181 202 269 276 296 285 310 344 324 267 263 279 275 256 251 258 248 215 209 216 218 215 213 206 200 199 198 196 190 186
259 260 263 266 269 274 277 282 287 295 300 300 310 319 327 330 331 338 335 300 286 291 278 256 237 242 238 225 218 199 203 215 208 192 187 192 188 172 160 135 99 121 208 154 135 174 255 254 206 126 122 161 200 329 148 182 293 258 205 203 247 269 251 245 294 339 320 305 280 292 289 257 218 236 252 226 209 219 219 213 213 210 206 202 199 196 193 191
255 256 260 263 265 269 272 277 281 284 284 286 296 302 316 320 331 344 344 335 293 286 245 215 228 231 210 202 201 192 209 222 209 195 192 196 178 155 151 152 115 160 217 179 130 217 260 265 153 132 105 138 164 233 194 175 250 298 237 214 231 252 256 267 326 353 341 324 314 353 311 272 206 225 250 262 199 223 211 203 207 206 203 200 199 196 191 192
252 253 256 259 261 264 265 271 273 269 268 274 282 292 309 310 334 349 1 43 311 264 175 190 213 200 196 203 196 181 248 243 207 196 189 186 181 159 136 162 116 184 201 177 125 258 256 318 99 137 147 136 163 250 227 166 141 295 257 205 209 229 254 283 336 353 290 271 293 63 270 273 275 219 243 223 214 226 207 205 208 202 199 198 198 193 187 191
248 250 253 255 257 257 255 257 255 253 261 269 275 282 297 305 339 350 15 29 290 219 147 176 188 182 192 199 186 170 229 221 179 191 189 175 178 167 174 197 118 211 186 124 338 271 168 117 41 90 131 152 201 255 227 156 133 241 245 130 127 202 251 271 316 285 245 277 291 224 166 271 275 245 244 208 212 234 220 217 213 202 202 200 197 191 189 195
244 244 247 249 251 249 246 245 246 251 255 260 266 266 279 298 319 358 63 14 270 165 138 176 169 178 189 189 192 191 213 171 152 191 186 175 187 169 184 205 178 196 184 131 258 269 161 179 209 152 125 198 217 229 190 156 156 245 214 140 135 218 233 254 267 266 289 29 294 250 147 258 272 253 289 196 215 242 230 218 212 203 204 200 194 190 191 196
240 238 240 242 244 243 241 239 239 242 244 247 249 248 261 275 308 43 86 241 248 135 143 170 161 184 184 170 203 217 223 206 183 185 178 177 204 181 176 206 174 176 196 155 215 249 202 199 202 158 159 220 218 217 174 162 195 227 165 125 354 25 207 266 276 275 23 57 266 252 154 217 270 223 117 37 234 244 235 221 212 205 205 199 190 188 192 194
236 234 234 236 237 236 235 233 232 234 235 233 229 232 249 243 85 72 183 240 245 149 128 161 181 181 164 153 223 227 208 219 190 164 175 190 204 196 170 184 144 134 274 346 249 254 289 128 182 175 201 198 159 132 132 149 167 119 76 24 355 1 25 34 34 69 57 260 255 234 178 197 272 242 176 196 220 221 220 211 201 204 205 197 190 190 193 192
235 232 229 230 230 228 226 223 224 227 224 217 217 217 211 148 83 122 211 240 296 210 121 170 207 144 150 159 202 202 185 228 181 160 178 196 185 203 147 167 63 71 360 344 300 302 336 53 233 241 207 144 104 92 43 32 66 87 64 36 355 326 4 24 356 48 83 254 259 223 188 196 241 246 207 228 239 218 207 198 194 202 200 193 191 192 193 192
236 231 227 227 226 224 221 215 213 215 212 207 209 202 170 145 181 194 222 325 338 211 168 186 212 156 159 150 189 202 187 220 180 162 170 156 175 207 185 200 194 10 324 287 291 325 308 232 258 322 201 163 119 89 360 1 38 76 80 60 15 323 351 352 300 13 218 247 254 150 172 215 242 246 237 241 246 234 214 204 202 198 188 188 192 192 191 190
238 232 227 226 224 221 217 211 204 201 202 199 198 180 120 145 225 211 218 266 234 215 152 127 125 133 141 143 245 212 163 218 197 171 176 142 214 253 249 226 166 158 264 222 342 325 291 297 290 121 254 192 158 138 207 276 90 134 141 134 150 8 337 294 272 277 274 269 260 117 124 258 264 258 236 238 251 250 229 221 215 198 185 188 192 189 188 188
238 235 229 224 221 218 214 210 202 196 196 193 183 144 124 206 229 213 219 229 236 345 56 109 102 109 134 170 237 201 166 242 189 153 192 117 162 248 254 245 174 136 153 170 243 197 222 306 228 186 214 178 175 177 165 142 139 176 158 140 160 159 209 259 261 269 292 299 270 151 144 235 252 268 235 249 282 277 236 223 210 193 187 188 187 183 185 186
238 238 232 225 219 214 210 209 202 194 195 189 173 155 190 208 218 202 219 223 221 322 11 61 95 120 223 260 280 219 193 244 175 134 192 169 184 207 194 217 197 145 127 164 254 175 185 259 246 242 154 160 173 183 141 112 112 210 126 117 186 183 187 238 243 230 286 309 276 216 220 227 225 273 272 315 335 341 213 190 168 171 179 180 180 181 184 185
243 242 236 230 219 209 206 206 201 197 196 185 175 216 212 204 189 191 199 176 174 158 127 45 93 145 243 271 279 245 190 224 148 137 228 214 206 211 203 217 192 171 163 166 212 194 194 264 265 24 11 172 165 164 146 137 172 163 130 186 223 175 145 205 281 309 68 282 272 243 263 275 301 287 296 70 57 56 112 158 155 164 174 176 179 181 183 186
243 240 238 235 220 206 204 202 197 198 195 184 200 222 209 206 197 189 186 153 152 142 136 166 200 183 215 232 227 226 188 231 189 155 225 245 232 201 205 244 195 184 192 175 199 219 195 269 252 148 195 228 166 124 59 39 143 133 182 220 212 122 95 115 267 325 72 251 266 251 270 277 276 279 327 73 159 213 190 176 162 168 177 180 182 183 185 188
233 236 241 241 223 205 204 200 197 199 192 189 230 234 211 210 205 194 185 158 127 114 141 199 216 183 191 202 220 205 166 193 190 168 199 232 249 189 165 213 201 195 201 176 165 248 142 274 270 152 171 260 34 74 25 328 126 140 207 241 139 164 251 126 149 264 253 262 269 271 283 276 247 230 236 191 206 207 195 186 180 185 187 186 186 185 187 190
228 242 252 246 225 206 202 199 198 197 190 201 227 230 214 209 217 213 203 180 152 148 164 214 220 192 175 179 191 181 180 195 179 175 198 196 232 199 169 193 194 194 196 163 166 229 124 228 276 333 325 311 34 122 191 233 354 90 333 313 45 180 208 183 158 207 229 265 274 286 299 283 236 187 198 204 204 195 184 187 197 200 195 190 188 186 187 192
220 236 257 243 223 207 198 195 196 193 196 219 219 217 206 210 228 224 218 213 203 194 204 212 207 212 197 185 192 179 193 203 175 184 217 195 220 221 198 193 155 147 163 128 141 213 113 195 251 335 339 258 180 198 192 185 174 160 193 237 238 202 193 253 221 167 202 259 269 282 281 272 228 162 195 197 201 195 181 188 203 202 196 194 191 188 189 195
208 227 248 222 212 204 192 186 195 195 207 230 222 218 220 227 233 225 223 224 225 222 214 191 191 203 192 196 219 188 183 200 183 193 226 210 221 233 206 193 160 140 120 74 138 201 159 192 209 206 251 215 222 230 200 188 183 177 186 197 205 201 189 274 254 201 181 237 235 250 273 268 219 166 203 186 195 197 184 191 203 198 195 194 192 192 195 200
202 222 233 199 200 195 185 185 206 197 212 225 218 217 218 225 228 218 221 223 227 234 223 203 201 202 196 203 208 185 175 194 195 200 227 220 212 211 201 192 173 156 148 129 215 194 143 134 203 237 230 213 244 283 254 206 201 200 210 196 186 183 172 212 242 225 179 235 226 210 270 267 201 148 203 193 194 187 187 197 199 193 195 193 192 195 198 202
208 215 206 193 197 187 180 203 228 196 223 227 222 229 223 222 225 212 212 213 216 217 217 221 196 198 217 206 192 193 188 201 203 197 220 236 216 211 199 187 176 158 144 142 232 151 121 131 213 267 288 309 336 348 3 16 69 238 242 192 184 204 196 206 229 170 200 235 185 194 259 262 292 104 202 190 193 183 190 201 196 188 192 192 192 195 196 200
213 217 210 198 191 183 183 213 216 208 229 220 222 235 233 237 235 217 203 199 202 191 200 222 199 203 221 190 181 202 190 204 223 205 209 227 209 213 204 187 179 169 171 192 178 164 171 186 173 252 307 311 319 350 342 329 239 228 238 198 205 218 207 209 14 117 254 238 172 217 258 258 296 15 13 117 171 185 196 201 194 186 188 190 191 192 195 199
206 217 214 201 190 190 202 223 193 203 219 211 224 233 232 244 236 224 217 207 208 195 188 225 211 202 207 156 184 212 198 212 235 219 211 222 221 221 206 194 189 185 197 196 167 163 175 194 169 184 244 258 264 266 234 229 217 218 233 214 213 211 202 208 222 222 244 235 187 226 255 262 272 2 325 239 189 193 199 193 193 192 190 190 190 191 194 196
188 201 204 190 189 199 217 229 217 206 203 199 224 230 222 234 237 223 218 216 218 211 214 238 208 187 194 176 193 221 220 223 231 227 205 202 228 263 192 202 203 201 211 182 161 157 144 239 202 204 219 231 251 257 204 130 188 230 232 214 202 203 203 204 222 235 236 228 237 243 248 263 268 254 226 237 208 199 202 189 192 196 192 191 191 191 194 195
186 200 192 170 184 203 219 225 220 220 185 179 192 217 216 223 234 219 208 209 213 209 221 249 204 192 205 187 193 227 228 224 225 228 222 192 221 282 149 195 209 211 210 173 170 158 97 245 223 218 228 235 249 255 227 148 238 254 257 235 199 192 200 200 219 233 223 146 255 254 247 254 263 256 224 222 216 207 204 193 196 195 191 190 190 190 193 195
198 211 198 186 179 195 209 212 206 208 210 198 204 231 220 214 215 211 203 201 201 199 205 235 217 211 205 184 191 228 228 227 230 227 227 221 222 227 109 221 210 206 191 162 188 164 125 241 231 214 233 244 251 257 253 246 256 263 265 256 214 190 200 207 225 234 224 217 249 261 261 257 262 261 234 216 209 208 208 203 201 195 189 188 186 188 193 197
209 216 196 193 199 199 203 208 201 201 216 213 217 239 232 220 213 205 190 177 201 204 201 216 224 215 203 192 197 222 227 221 219 221 220 222 221 196 172 252 217 196 179 161 206 170 154 245 241 213 238 253 252 255 255 254 261 266 263 258 235 217 216 216 233 239 234 236 249 261 267 266 267 264 252 235 215 210 210 203 196 189 185 186 187 190 195 199
213 210 188 186 207 215 202 204 198 203 218 213 222 236 231 228 222 208 184 183 200 205 198 215 227 212 196 202 206 222 227 213 208 222 209 204 219 201 191 217 168 162 191 172 189 205 193 240 246 187 245 263 255 246 235 242 253 261 264 261 243 238 239 233 240 244 241 245 249 255 263 267 268 264 261 251 219 200 197 192 189 189 188 187 188 192 195 198
219 215 198 182 203 213 195 192 188 200 218 208 221 232 226 228 224 210 200 210 212 204 190 209 225 211 194 210 215 225 229 214 211 225 211 193 203 199 199 197 154 150 197 179 168 203 200 224 62 122 236 260 259 232 226 257 276 266 267 264 245 238 242 236 237 238 234 239 248 254 255 257 264 267 258 234 203 186 184 183 186 192 191 189 190 192 197 201
220 219 209 199 203 198 191 194 187 198 220 213 218 227 225 229 222 202 211 226 222 220 211 208 216 210 200 216 220 225 228 221 220 230 225 210 209 206 205 198 178 170 172 168 181 193 179 197 185 153 226 258 275 99 119 61 310 269 264 252 228 228 235 238 244 241 232 228 240 247 242 247 260 268 243 225 192 186 195 190 190 191 190 191 194 195 198 202
Height
1568 1567 1566 1565 1565 1564 1563 1562 1561 1560 1559 1558 1557 1556 1554 1553 1552 1551 1550 1549 1548 1547 1546 1545 1544 1544 1544 1544 1543 1543 1542 1542 1541 1541 1540 1539 1539 1539 1538 1538 1537 1536 1535 1534 1533 1532 1531 1531 1530 1529 1529 1528 1528 1528 1528 1528 1527 1527 1531 1534 1536 1539 1538 1534 1535 1536 1535 1535 1534 1533 1532 1533 1537 1538 1537 1539 1539 1539 1541 1542 1543 1543 1544 1544 1545 1546 1547 1547
1568 1567 1566 1566 1565 1564 1563 1562 1561 1560 1559 1558 1557 1556 1555 1554 1553 1552 1550 1549 1548 1547 1546 1545 1545 1544 1544 1544 1544 1544 1543 1543 1542 1542 1541 1540 1540 1539 1539 1538 1537 1536 1535 1534 1533 1532 1531 1531 1530 1529 1528 1528 1528 1528 1528 1528 1527 1528 1532 1534 1536 1538 1535 1532 1533 1532 1533 1533 1533 1533 1533 1533 1535 1536 1535 1539 1542 1541 1541 1544 1545 1544 1544 1545 1545 1545 1546 1546
1568 1567 1567 1566 1565 1564 1563 1562 1562 1561 1560 1559 1558 1557 1556 1554 1553 1552 1551 1550 1549 1548 1547 1546 1545 1545 1544 1544 1544 1544 1544 1543 1543 1542 1542 1541 1541 1540 1540 1539 1538 1537 1535 1534 1533 1532 1531 1531 1530 1529 1528 1528 1528 1528 1528 1528 1528 1529 1531 1533 1534 1534 1533 1532 1532 1531 1531 1532 1532 1533 1532 1532 1533 1534 1534 1537 1542 1541 1540 1542 1543 1543 1543 1543 1544 1544 1544 1544
1568 1568 1567 1566 1565 1564 1563 1563 1562 1561 1560 1559 1558 1557 1556 1555 1554 1552 1551 1550 1549 1548 1547 1546 1545 1545 1544 1544 1544 1544 1544 1544 1543 1543 1543 1542 1541 1541 1540 1539 1539 1538 1536 1535 1534 1533 1532 1531 1530 1528 1528 1528 1528 1528 1528 1528 1528 1529 1530 1531 1532 1532 1532 1531 1531 1530 1531 1531 1531 1531 1531 1531 1532 1532 1532 1534 1538 1541 1539 1537 1537 1539 1540 1541 1542 1543 1543 1543
1568 1568 1567 1566 1565 1564 1563 1563 1562 1561 1560 1559 1558 1557 1557 1556 1554 1553 1552 1551 1549 1548 1547 1547 1546 1545 1544 1544 1544 1544 1544 1545 1544 1543 1543 1542 1542 1541 1540 1540 1539 1538 1537 1536 1534 1533 1532 1531 1530 1528 1528 1528 1528 1528 1528 1528 1528 1529 1529 1529 1529 1530 1531 1531 1531 1530 1530 1530 1530 1531 1530 1530 1530 1531 1531 1531 1533 1535 1535 1534 1535 1536 1537 1539 1540 1541 1541 1541
1568 1567 1567 1566 1565 1564 1563 1563 1562 1561 1560 1559 1558 1557 1557 1556 1555 1553 1552 1551 1550 1549 1548 1547 1546 1545 1544 1544 1544 1543 1544 1545 1544 1543 1543 1542 1542 1541 1541 1540 1540 1539 1538 1537 1535 1534 1533 1532 1530 1529 1529 1529 1530 1529 1528 1528 1528 1529 1529 1528 1529 1529 1530 1530 1531 1530 1530 1530 1530 1530 1530 1529 1530 1531 1532 1531 1530 1530 1532 1534 1535 1536 1537 1538 1539 1539 1539 1539
1568 1567 1566 1566 1565 1564 1563 1563 1562 1561 1560 1559 1558 1557 1556 1556 1555 1553 1552 1551 1550 1549 1548 1547 1546 1545 1544 1543 1543 1543 1543 1543 1543 1543 1543 1542 1542 1541 1541 1540 1540 1539 1538 1537 1535 1534 1533 1531 1530 1530 1530 1530 1531 1530 1529 1528 1528 1529 1529 1527 1528 1528 1528 1529 1529 1530 1530 1529 1529 1529 1529 1529 1528 1529 1531 1531 1530 1531 1532 1534 1535 1536 1537 1537 1537 1537 1537 1537
1567 1566 1566 1565 1565 1564 1563 1562 1561 1561 1560 1559 1558 1557 1556 1555 1554 1553 1552 1551 1550 1549 1548 1546 1545 1545 1544 1543 1543 1543 1543 1542 1542 1543 1542 1542 1542 1541 1541 1540 1540 1540 1538 1537 1535 1534 1533 1532 1531 1531 1532 1531 1532 1531 1530 1529 1528 1529 1529 1527 1527 1527 1527 1528 1528 1528 1528 1528 1528 1528 1528 1527 1527 1528 1530 1531 1531 1532 1532 1534 1534 1535 1535 1536 1535 1535 1535 1535
1566 1566 1565 1564 1564 1563 1562 1562 1561 1560 1560 1559 1558 1557 1556 1555 1554 1553 1552 1550 1549 1548 1547 1546 1545 1544 1544 1543 1543 1543 1542 1542 1542 1542 1542 1542 1541 1541 1540 1540 1540 1539 1538 1537 1535 1534 1533 1532 1532 1532 1532 1532 1532 1532 1531 1530 1529 1528 1528 1528 1527 1527 1526 1527 1527 1527 1526 1527 1527 1527 1527 1528 1527 1528 1531 1532 1532 1532 1532 1533 1533 1533 1534 1534 1534 1534 1534 1533
1565 1565 1564 1563 1563 1562 1562 1561 1560 1559 1559 1558 1557 1557 1556 1555 1554 1553 1551 1550 1548 1547 1546 1545 1544 1543 1543 1542 1543 1542 1541 1541 1541 1541 1541 1541 1541 1541 1540 1540 1539 1539 1538 1537 1536 1535 1534 1533 1532 1532 1532 1532 1532 1532 1531 1532 1530 1529 1528 1528 1527 1526 1526 1525 1525 1526 1526 1526 1526 1527 1527 1527 1528 1528 1530 1531 1531 1530 1531 1531 1532 1532 1532 1533 1533 1533 1532 1532
1564 1564 1563 1562 1562 1561 1561 1560 1559 1559 1558 1557 1557 1556 1555 1554 1553 1552 1551 1549 1548 1546 1545 1544 1544 1543 1542 1542 1542 1541 1540 1540 1540 1540 1541 1541 1540 1540 1539 1539 1539 1538 1537 1536 1535 1535 1534 1533 1532 1532 1532 1532 1532 1532 1531 1531 1530 1529 1528 1527 1526 1525 1524 1524 1524 1525 1525 1526 1526 1526 1528 1529 1529 1527 1524 1525 1528 1528 1528 1529 1531 1531 1530 1530 1530 1530 1530 1530
1563 1562 1562 1561 1561 1560 1560 1559 1558 1557 1557 1556 1555 1555 1554 1553 1552 1551 1550 1548 1547 1545 1544 1543 1543 1542 1541 1541 1540 1540 1539 1540 1540 1540 1540 1540 1540 1539 1539 1539 1538 1537 1537 1536 1535 1534 1534 1533 1532 1531 1532 1532 1532 1532 1531 1531 1530 1529 1529 1528 1527 1525 1523 1522 1523 1524 1524 1525 1525 1526 1529 1531 1529 1524 1520 1522 1525 1527 1528 1528 1528 1528 1528 1528 1528 1528 1528 1528
1562 1561 1561 1560 1560 1559 1558 1558 1557 1556 1555 1554 1554 1553 1553 1552 1551 1550 1548 1547 1546 1544 1543 1542 1542 1541 1541 1540 1539 1539 1539 1539 1539 1539 1539 1539 1539 1538 1538 1538 1537 1537 1536 1535 1534 1534 1533 1532 1532 1531 1531 1532 1532 1532 1531 1531 1530 1529 1530 1530 1529 1528 1524 1521 1522 1523 1523 1524 1524 1526 1528 1527 1524 1521 1520 1522 1523 1525 1526 1526 1526 1526 1525 1525 1525 1525 1526 1527
1560 1560 1560 1559 1559 1558 1557 1556 1556 1555 1554 1553 1552 1552 1551 1550 1549 1548 1547 1546 1544 1543 1542 1541 1540 1540 1540 1539 1538 1538 1538 1538 1538 1538 1539 1539 1538 1537 1537 1537 1536 1536 1535 1534 1534 1533 1533 1532 1532 1531 1531 1531 1531 1531 1531 1531 1531 1531 1531 1532 1535 1534 1526 1521 1522 1523 1523 1524 1523 1526 1528 1522 1519 1520 1520 1521 1520 1521 1522 1522 1523 1523 1523 1523 1523 1524 1524 1525
1559 1559 1558 1558 1557 1557 1556 1555 1554 1553 1553 1552 1551 1550 1549 1548 1547 1546 1545 1544 1543 1542 1541 1540 1539 1539 1539 1538 1537 1537 1537 1537 1537 1537 1538 1538 1538 1537 1536 1536 1535 1535 1534 1533 1533 1533 1532 1531 1531 1530 1531 1530 1530 1531 1532 1532 1532 1533 1533 1534 1538 1537 1529 1522 1522 1522 1522 1522 1522 1525 1527 1519 1515 1517 1518 1518 1518 1518 1519 1519 1520 1520 1521 1521 1521 1522 1523 1523
1558 1557 1557 1556 1556 1555 1554 1554 1553 1552 1551 1550 1549 1548 1548 1546 1545 1544 1543 1542 1542 1541 1540 1539 1538 1538 1538 1536 1536 1535 1535 1536 1536 1536 1536 1536 1536 1536 1535 1535 1534 1534 1534 1533 1532 1532 1531 1531 1530 1530 1530 1530 1532 1533 1533 1534 1533 1535 1537 1535 1535 1536 1534 1527 1522 1521 1520 1521 1521 1522 1522 1515 1512 1514 1515 1517 1517 1517 1518 1518 1518 1518 1518 1519 1520 1521 1521 1522
1557 1556 1555 1555 1555 1554 1553 1552 1551 1550 1550 1549 1547 1546 1546 1544 1543 1542 1541 1540 1540 1539 1539 1538 1537 1537 1536 1535 1534 1533 1533 1534 1534 1535 1535 1535 1535 1535 1534 1534 1533 1533 1533 1532 1532 1531 1531 1530 1530 1531 1531 1532 1534 1534 1535 1538 1537 1537 1538 1536 1534 1534 1535 1531 1523 1520 1520 1521 1520 1520 1520 1512 1510 1514 1515 1515 1515 1516 1516 1515 1515 1516 1517 1518 1519 1519 1519 1520
1555 1555 1554 1554 1553 1552 1552 1551 1550 1549 1548 1547 1546 1544 1543 1542 1541 1540 1538 1538 1539 1538 1537 1536 1537 1538 1535 1532 1532 1532 1532 1533 1533 1533 1533 1533 1534 1534 1533 1533 1532 1532 1532 1532 1531 1531 1531 1530 1530 1531 1533 1534 1534 1534 1538 1540 1539 1540 1539 1537 1536 1534 1532 1530 1526 1521 1520 1521 1520 1521 1519 1512 1512 1515 1514 1513 1514 1514 1512 1513 1514 1514 1516 1516 1517 1517 1518 1518
1554 1553 1553 1552 1552 1551 1550 1550 1549 1548 1546 1546 1545 1543 1541 1540 1539 1537 1537 1538 1537 1536 1536 1535 1535 1536 1533 1530 1531 1531 1531 1531 1531 1531 1532 1532 1532 1532 1532 1532 1531 1531 1531 1531 1531 1531 1530 1530 1531 1533 1534 1535 1534 1535 1537 1537 1537 1538 1538 1538 1538 1535 1530 1526 1525 1521 1520 1521 1519 1518 1517 1510 1511 1514 1512 1512 1513 1513 1512 1513 1513 1513 1514 1514 1514 1515 1515 1515
1551 1551 1551 1551 1550 1549 1549 1548 1548 1547 1545 1544 1543 1542 1540 1539 1538 1536 1536 1536 1535 1534 1533 1533 1532 1532 1530 1529 1529 1530 1529 1530 1530 1530 1530 1530 1531 1531 1531 1530 1530 1530 1531 1531 1531 1531 1530 1532 1534 1534 1534 1534 1534 1534 1534 1535 1536 1536 1537 1537 1536 1538 1531 1523 1522 1520 1520 1522 1515 1513 1514 1510 1509 1510 1509 1510 1511 1512 1512 1511 1511 1511 1511 1511 1511 1512 1512 1513
1548 1549 1549 1549 1548 1548 1547 1547 1546 1546 1544 1543 1542 1541 1540 1540 1538 1537 1535 1532 1532 1532 1530 1529 1529 1528 1528 1528 1528 1528 1528 1528 1528 1529 1529 1529 1529 1529 1529 1530 1530 1530 1531 1532 1532 1531 1532 1534 1533 1531 1532 1532 1533 1534 1534 1534 1535 1535 1536 1536 1535 1538 1531 1521 1521 1520 1521 1522 1514 1510 1513 1511 1508 1507 1506 1508 1509 1508 1506 1506 1506 1506 1507 1507 1507 1508 1510 1511
1546 1546 1546 1546 1546 1546 1546 1545 1545 1545 1544 1543 1542 1541 1541 1540 1539 1538 1536 1532 1529 1528 1527 1526 1526 1525 1525 1526 1526 1526 1527 1527 1527 1527 1528 1528 1528 1528 1528 1529 1529 1530 1531 1532 1532 1533 1534 1533 1530 1529 1531 1532 1533 1533 1533 1534 1534 1535 1536 1538 1535 1533 1530 1522 1520 1521 1521 1521 1514 1510 1511 1509 1506 1504 1503 1503 1503 1500 1498 1498 1498 1499 1501 1502 1503 1505 1506 1508
1543 1543 1544 1544 1544 1544 1544 1544 1544 1543 1543 1542 1541 1541 1540 1539 1538 1538 1537 1533 1527 1524 1524 1523 1523 1523 1523 1524 1524 1525 1525 1525 1525 1525 1526 1527 1526 1527 1526 1527 1529 1530 1532 1532 1532 1535 1534 1530 1528 1529 1530 1531 1532 1533 1533 1533 1534 1534 1535 1537 1533 1530 1531 1525 1521 1523 1522 1521 1517 1511 1507 1506 1505 1501 1496 1496 1495 1495 1495 1496 1497 1497 1497 1497 1499 1502 1503 1504
1541 1541 1541 1541 1542 1542 1542 1542 1542 1542 1542 1541 1541 1540 1539 1539 1538 1537 1535 1533 1528 1523 1522 1521 1522 1522 1522 1523 1523 1524 1524 1524 1524 1524 1525 1525 1525 1526 1525 1526 1529 1530 1531 1531 1532 1534 1531 1528 1529 1530 1530 1531 1532 1533 1533 1533 1533 1533 1533 1534 1530 1527 1528 1525 1525 1525 1523 1520 1517 1512 1504 1497 1498 1495 1489 1490 1492 1493 1494 1495 1496 1496 1496 1498 1499 1500 1501 1502
1538 1539 1539 1539 1540 1540 1541 1541 1540 1541 1540 1540 1540 1539 1539 1538 1537 1536 1534 1534 1529 1522 1521 1521 1521 1521 1521 1522 1522 1523 1523 1523 1523 1523 1523 1524 1524 1525 1525 1526 1527 1528 1531 1532 1532 1532 1528 1527 1528 1529 1530 1531 1531 1532 1533 1533 1534 1533 1528 1527 1526 1524 1525 1526 1527 1527 1524 1521 1518 1518 1509 1493 1491 1493 1487 1489 1492 1490 1491 1492 1492 1493 1495 1497 1497 1497 1499 1499
1535 1536 1536 1537 1538 1538 1539 1539 1539 1540 1539 1539 1539 1538 1539 1537 1537 1536 1534 1538 1532 1520 1519 1520 1520 1520 1520 1521 1522 1523 1524 1522 1521 1522 1522 1523 1523 1523 1524 1525 1525 1527 1529 1530 1530 1529 1527 1528 1529 1528 1529 1530 1531 1531 1532 1532 1536 1535 1527 1525 1526 1526 1527 1527 1528 1528 1526 1524 1520 1522 1521 1504 1492 1488 1484 1487 1489 1487 1489 1489 1488 1490 1491 1492 1493 1494 1496 1497
1532 1533 1534 1534 1535 1536 1537 1537 1538 1538 1538 1539 1537 1538 1538 1536 1538 1536 1535 1543 1533 1516 1516 1519 1518 1519 1518 1520 1521 1522 1523 1520 1519 1521 1521 1521 1522 1522 1523 1525 1525 1526 1527 1529 1530 1527 1526 1528 1529 1529 1528 1529 1529 1528 1529 1531 1533 1532 1527 1527 1527 1526 1528 1528 1529 1530 1529 1528 1524 1520 1525 1517 1497 1486 1482 1483 1485 1485 1487 1487 1486 1487 1487 1487 1489 1491 1493 1494
1528 1530 1531 1532 1533 1534 1535 1535 1536 1536 1537 1537 1536 1538 1537 1536 1538 1534 1538 1547 1530 1511 1514 1516 1516 1517 1517 1519 1519 1519 1520 1519 1519 1520 1519 1521 1521 1521 1522 1523 1524 1524 1524 1527 1529 1525 1524 1526 1526 1527 1528 1528 1526 1524 1526 1528 1528 1527 1527 1529 1528 1528 1530 1529 1530 1531 1531 1534 1525 1515 1523 1521 1497 1482 1484 1486 1485 1483 1481 1481 1481 1482 1483 1483 1486 1488 1490 1491
1525 1527 1528 1529 1530 1531 1532 1533 1533 1534 1535 1535 1536 1537 1535 1537 1537 1534 1544 1545 1521 1507 1513 1514 1515 1517 1516 1518 1518 1518 1518 1518 1518 1518 1518 1520 1520 1520 1521 1521 1522 1523 1523 1524 1524 1522 1522 1524 1523 1525 1526 1523 1521 1522 1524 1526 1525 1526 1528 1529 1528 1530 1530 1530 1532 1532 1535 1537 1523 1512 1519 1517 1489 1473 1483 1490 1485 1478 1472 1473 1476 1477 1479 1481 1483 1486 1486 1487
1522 1523 1525 1526 1527 1529 1530 1530 1532 1533 1533 1534 1535 1535 1535 1537 1536 1541 1551 1539 1514 1510 1514 1512 1514 1515 1515 1517 1517 1517 1517 1517 1517 1517 1518 1519 1519 1520 1520 1521 1522 1523 1524 1525 1523 1521 1522 1523 1524 1522 1521 1519 1520 1524 1526 1526 1526 1526 1529 1528 1528 1530 1531 1534 1535 1535 1537 1528 1512 1507 1511 1512 1494 1472 1474 1477 1468 1463 1463 1466 1472 1474 1476 1478 1480 1482 1482 1483
1519 1521 1522 1523 1525 1526 1527 1528 1530 1530 1532 1533 1533 1534 1535 1536 1539 1545 1544 1525 1511 1512 1512 1511 1514 1513 1514 1516 1515 1516 1516 1516 1516 1517 1518 1519 1519 1519 1520 1520 1521 1523 1525 1524 1523 1524 1523 1522 1522 1519 1517 1518 1520 1523 1525 1527 1527 1527 1529 1530 1528 1528 1529 1534 1536 1538 1535 1514 1500 1506 1509 1511 1500 1473 1465 1464 1455 1456 1458 1460 1464 1465 1469 1473 1475 1477 1478 1479
1516 1518 1519 1521 1522 1523 1525 1526 1527 1529 1530 1531 1532 1533 1534 1539 1543 1539 1528 1515 1511 1511 1508 1510 1513 1512 1514 1515 1514 1515 1516 1515 1515 1516 1517 1519 1519 1517 1518 1517 1518 1521 1523 1522 1521 1523 1519 1518 1520 1517 1516 1518 1518 1522 1526 1527 1528 1528 1530 1533 1532 1530 1528 1528 1527 1527 1523 1506 1500 1510 1510 1506 1488 1463 1459 1459 1453 1455 1455 1454 1456 1457 1463 1468 1470 1472 1474 1476
1513 1514 1517 1518 1519 1521 1523 1524 1526 1527 1528 1529 1531 1531 1534 1541 1537 1527 1519 1512 1508 1507 1507 1509 1511 1512 1514 1513 1513 1514 1515 1514 1514 1514 1516 1518 1519 1516 1516 1516 1516 1516 1520 1524 1525 1522 1516 1515 1518 1517 1514 1514 1515 1517 1520 1522 1526 1529 1529 1528 1529 1532 1532 1527 1520 1515 1509 1500 1501 1511 1510 1497 1474 1455 1454 1452 1449 1453 1453 1452 1452 1453 1459 1462 1464 1469 1470 1473
1511 1512 1514 1515 1517 1519 1520 1522 1524 1525 1527 1528 1529 1530 1537 1538 1527 1518 1516 1510 1506 1507 1508 1508 1511 1513 1513 1512 1512 1512 1512 1512 1513 1514 1514 1517 1518 1515 1513 1515 1515 1514 1518 1525 1525 1523 1519 1511 1510 1511 1508 1509 1511 1511 1512 1516 1524 1528 1526 1526 1525 1525 1528 1524 1516 1509 1504 1499 1501 1510 1505 1483 1461 1451 1451 1450 1450 1452 1451 1451 1452 1453 1457 1460 1462 1467 1468 1470
1508 1509 1510 1512 1514 1516 1518 1521 1522 1523 1525 1525 1527 1530 1531 1527 1518 1514 1511 1506 1506 1508 1508 1509 1510 1512 1513 1512 1512 1510 1508 1509 1512 1514 1513 1514 1514 1510 1508 1509 1511 1513 1516 1520 1519 1522 1523 1510 1505 1509 1507 1508 1509 1510 1512 1514 1519 1526 1528 1526 1522 1517 1516 1517 1513 1509 1511 1510 1503 1500 1488 1466 1453 1450 1452 1455 1453 1452 1452 1451 1452 1455 1457 1460 1462 1464 1466 1467
1506 1506 1508 1508 1510 1514 1516 1518 1519 1522 1522 1523 1527 1525 1516 1509 1508 1507 1502 1498 1501 1503 1507 1511 1510 1511 1513 1511 1510 1509 1507 1508 1512 1513 1512 1514 1512 1509 1506 1502 1504 1507 1507 1511 1512 1514 1516 1508 1506 1511 1509 1510 1510 1509 1512 1510 1512 1524 1526 1519 1516 1515 1514 1514 1515 1516 1522 1518 1497 1483 1473 1458 1451 1449 1450 1456 1454 1453 1456 1453 1453 1456 1456 1459 1460 1461 1463 1464
1504 1504 1504 1504 1507 1512 1513 1515 1518 1519 1520 1522 1521 1512 1503 1500 1498 1498 1496 1495 1496 1498 1503 1507 1506 1506 1508 1507 1506 1507 1507 1509 1511 1511 1511 1513 1506 1502 1504 1499 1499 1500 1497 1501 1504 1505 1508 1504 1505 1509 1506 1509 1512 1510 1512 1511 1510 1518 1519 1512 1512 1517 1516 1517 1522 1521 1523 1518 1493 1478 1472 1458 1450 1448 1450 1457 1456 1454 1458 1456 1455 1457 1456 1458 1458 1459 1461 1462
1503 1503 1501 1500 1504 1508 1509 1513 1515 1515 1518 1519 1513 1504 1499 1497 1493 1492 1493 1493 1494 1496 1499 1501 1499 1498 1502 1503 1502 1505 1507 1507 1509 1510 1509 1508 1500 1493 1497 1495 1494 1497 1495 1497 1500 1503 1508 1502 1503 1512 1510 1509 1512 1511 1511 1512 1512 1512 1512 1511 1511 1514 1514 1518 1525 1520 1517 1515 1492 1475 1471 1452 1441 1443 1444 1450 1452 1451 1456 1457 1456 1456 1455 1456 1456 1457 1460 1461
1502 1502 1497 1495 1501 1505 1506 1510 1511 1514 1516 1513 1507 1502 1497 1493 1490 1490 1490 1490 1492 1493 1495 1494 1493 1494 1498 1499 1498 1502 1505 1503 1506 1508 1503 1502 1498 1490 1490 1490 1491 1495 1496 1497 1499 1502 1506 1503 1502 1511 1514 1512 1512 1511 1508 1508 1513 1514 1513 1514 1511 1511 1511 1512 1517 1512 1507 1508 1491 1479 1473 1444 1427 1432 1432 1437 1445 1446 1451 1454 1452 1451 1451 1452 1454 1455 1457 1459
1500 1501 1494 1491 1497 1501 1503 1507 1509 1511 1509 1501 1497 1497 1493 1490 1488 1487 1488 1489 1489 1489 1490 1490 1490 1492 1494 1496 1496 1496 1500 1501 1503 1504 1499 1496 1493 1487 1487 1487 1489 1495 1497 1498 1500 1501 1506 1506 1503 1510 1518 1513 1505 1503 1499 1498 1505 1510 1512 1514 1511 1510 1510 1510 1510 1504 1502 1504 1494 1491 1478 1437 1420 1429 1426 1428 1437 1439 1444 1447 1445 1447 1448 1450 1451 1453 1455 1457
1499 1498 1490 1489 1495 1497 1501 1505 1503 1502 1499 1493 1491 1491 1490 1487 1485 1485 1486 1486 1486 1485 1486 1486 1487 1488 1489 1492 1493 1492 1496 1499 1499 1499 1496 1492 1488 1484 1483 1482 1484 1491 1496 1499 1500 1498 1501 1504 1502 1505 1511 1505 1494 1493 1494 1493 1494 1497 1500 1502 1501 1504 1507 1509 1507 1499 1500 1498 1487 1490 1474 1427 1416 1430 1424 1424 1432 1433 1437 1440 1440 1443 1445 1447 1449 1451 1454 1454
1495 1491 1486 1489 1492 1492 1497 1499 1494 1493 1492 1487 1485 1486 1485 1483 1482 1482 1482 1483 1484 1482 1483 1484 1483 1485 1485 1484 1486 1488 1491 1493 1495 1495 1490 1484 1481 1478 1477 1479 1481 1483 1488 1493 1495 1493 1496 1500 1500 1497 1495 1495 1494 1494 1495 1494 1492 1493 1493 1491 1493 1498 1500 1502 1500 1493 1496 1491 1481 1491 1475 1425 1415 1429 1425 1425 1429 1429 1433 1435 1436 1440 1441 1444 1447 1449 1451 1452
1487 1485 1484 1487 1488 1490 1495 1494 1489 1489 1485 1481 1481 1481 1480 1479 1478 1478 1478 1480 1480 1479 1480 1480 1477 1479 1480 1479 1481 1484 1485 1486 1485 1485 1482 1478 1476 1475 1475 1476 1478 1480 1484 1488 1491 1492 1495 1497 1497 1492 1487 1489 1495 1497 1496 1495 1496 1494 1490 1488 1490 1488 1485 1488 1488 1488 1489 1482 1483 1498 1473 1423 1416 1429 1426 1426 1428 1428 1431 1431 1433 1438 1439 1441 1445 1445 1448 1449
1482 1483 1483 1485 1487 1488 1488 1483 1481 1482 1480 1480 1481 1479 1478 1477 1474 1473 1474 1474 1474 1474 1474 1473 1472 1473 1473 1475 1476 1478 1481 1480 1476 1475 1475 1473 1472 1472 1472 1473 1474 1476 1478 1479 1482 1486 1490 1491 1494 1497 1494 1489 1488 1493 1495 1495 1496 1491 1484 1484 1483 1479 1483 1486 1487 1491 1486 1472 1481 1490 1456 1418 1421 1431 1426 1428 1430 1428 1430 1431 1431 1435 1436 1438 1441 1442 1444 1445
1481 1482 1480 1481 1483 1483 1478 1472 1473 1476 1477 1479 1480 1478 1478 1474 1467 1466 1469 1468 1468 1469 1469 1468 1468 1468 1470 1473 1474 1474 1475 1473 1470 1469 1469 1470 1470 1469 1471 1471 1471 1472 1472 1473 1475 1478 1482 1484 1486 1491 1495 1488 1476 1473 1476 1480 1487 1487 1480 1479 1479 1479 1484 1483 1485 1489 1477 1465 1473 1469 1439 1416 1422 1430 1428 1428 1430 1428 1428 1431 1431 1432 1434 1435 1438 1439 1441 1442
1475 1475 1474 1476 1478 1477 1472 1469 1471 1471 1471 1476 1479 1475 1473 1467 1460 1460 1464 1466 1465 1466 1466 1464 1464 1466 1468 1470 1471 1471 1470 1468 1468 1466 1466 1467 1467 1468 1470 1470 1470 1472 1472 1473 1474 1475 1480 1481 1477 1475 1477 1473 1461 1455 1461 1467 1473 1474 1471 1472 1476 1478 1479 1480 1483 1476 1463 1466 1464 1441 1428 1424 1416 1421 1428 1427 1428 1428 1426 1429 1430 1430 1432 1433 1434 1437 1438 1440
1464 1460 1459 1465 1469 1470 1467 1466 1468 1467 1466 1470 1468 1461 1458 1458 1458 1459 1460 1459 1460 1463 1464 1462 1462 1463 1462 1464 1468 1467 1464 1464 1465 1463 1464 1464 1464 1468 1470 1469 1470 1472 1471 1473 1474 1474 1478 1475 1471 1470 1467 1459 1452 1452 1460 1464 1463 1460 1458 1461 1469 1475 1476 1477 1473 1456 1454 1470 1452 1417 1424 1430 1409 1409 1423 1423 1424 1425 1423 1425 1426 1426 1428 1429 1432 1435 1436 1437
1450 1443 1443 1450 1454 1455 1455 1454 1457 1461 1462 1461 1455 1450 1449 1450 1453 1453 1452 1454 1456 1458 1460 1458 1455 1453 1454 1458 1463 1462 1458 1460 1462 1460 1460 1461 1462 1466 1469 1469 1471 1470 1471 1474 1473 1473 1476 1468 1463 1468 1467 1458 1453 1455 1461 1463 1461 1458 1451 1450 1461 1470 1470 1467 1460 1449 1451 1458 1433 1408 1419 1422 1402 1404 1415 1415 1417 1419 1418 1420 1421 1421 1425 1427 1429 1432 1432 1433
1441 1437 1439 1443 1443 1442 1443 1444 1449 1455 1456 1455 1453 1447 1441 1439 1441 1442 1445 1450 1452 1449 1450 1450 1444 1444 1450 1453 1455 1454 1449 1450 1453 1453 1453 1454 1455 1459 1463 1465 1467 1469 1470 1472 1472 1473 1473 1464 1459 1464 1464 1459 1456 1459 1463 1463 1463 1457 1444 1442 1454 1460 1458 1457 1451 1443 1443 1442 1425 1415 1420 1411 1395 1399 1408 1409 1411 1413 1413 1416 1418 1419 1422 1424 1426 1428 1428 1430
1430 1429 1433 1438 1438 1438 1440 1443 1450 1452 1450 1454 1452 1438 1430 1432 1434 1434 1437 1440 1440 1439 1441 1440 1434 1436 1443 1446 1446 1440 1431 1433 1440 1441 1442 1447 1449 1453 1456 1454 1458 1467 1471 1469 1471 1473 1469 1463 1460 1463 1464 1458 1452 1456 1462 1461 1462 1456 1438 1434 1447 1451 1450 1451 1443 1435 1439 1437 1423 1421 1426 1409 1388 1390 1402 1405 1407 1409 1411 1413 1414 1416 1418 1420 1422 1423 1424 1426
1421 1422 1426 1431 1432 1433 1436 1439 1444 1447 1446 1446 1437 1425 1425 1428 1424 1428 1432 1428 1425 1427 1429 1428 1426 1432 1439 1440 1435 1424 1418 1425 1432 1428 1430 1437 1438 1440 1443 1442 1447 1459 1466 1467 1467 1467 1468 1465 1462 1465 1467 1455 1449 1458 1463 1462 1468 1461 1436 1430 1444 1447 1439 1435 1429 1425 1428 1426 1421 1426 1426 1403 1382 1387 1398 1400 1401 1405 1407 1408 1411 1412 1413 1415 1417 1419 1421 1423
1420 1421 1421 1423 1422 1423 1428 1431 1436 1438 1431 1424 1420 1418 1421 1419 1417 1426 1431 1422 1417 1419 1421 1421 1423 1430 1434 1430 1419 1411 1413 1421 1424 1423 1426 1431 1431 1431 1434 1436 1438 1443 1453 1462 1462 1460 1462 1461 1459 1466 1465 1454 1456 1466 1466 1468 1470 1447 1417 1414 1427 1430 1425 1423 1420 1415 1414 1417 1420 1418 1404 1385 1381 1390 1395 1395 1397 1400 1401 1403 1405 1407 1409 1412 1413 1415 1418 1419